| time (UTC) | temp F | wind direction | speed MPH | gust MPH | rain 1hr in | rain 24hr in | rain mn in | humidity % | barometer mb |
| 20260508221556 | 76 | 225 | 0.0 | 13.0 | 0.00 | 0.00 | 0.00 | 27 | 1005.8 |
| 20260508220059 | 78 | 192 | 1.0 | 8.0 | 0.00 | 0.00 | 0.00 | 26 | 1005.8 |
| 20260508214605 | 77 | 225 | 1.0 | 5.0 | 0.00 | 0.00 | 0.00 | 27 | 1005.8 |
| 20260508213056 | 77 | 206 | 2.0 | 8.0 | 0.00 | 0.00 | 0.00 | 26 | 1006.0 |
| 20260508211555 | 78 | 195 | 1.0 | 12.0 | 0.00 | 0.00 | 0.00 | 25 | 1006.2 |
| 20260508210057 | 77 | 0 | 1.0 | 7.0 | 0.00 | 0.00 | 0.00 | 27 | 1006.4 |
| 20260508204555 | 76 | 0 | 1.0 | 9.0 | 0.00 | 0.00 | 0.00 | 27 | 1006.7 |
| 20260508203103 | 76 | 0 | 1.0 | 8.0 | 0.00 | 0.00 | 0.00 | 28 | 1007.0 |
| 20260508201556 | 75 | 0 | 1.0 | 8.0 | 0.00 | 0.00 | 0.00 | 28 | 1007.2 |
| 20260508200100 | 75 | 297 | 1.0 | 6.0 | 0.00 | 0.00 | 0.00 | 28 | 1007.2 |
| 20260508194559 | 75 | 0 | 0.0 | 7.0 | 0.00 | 0.00 | 0.00 | 28 | 1007.5 |
| 20260508193113 | 75 | 209 | 1.0 | 3.0 | 0.00 | 0.00 | 0.00 | 29 | 1007.6 |
| 20260508191613 | 76 | 0 | 2.0 | 12.0 | 0.00 | 0.00 | 0.00 | 27 | 1007.7 |
| 20260508190058 | 76 | 184 | 1.0 | 14.0 | 0.00 | 0.00 | 0.00 | 27 | 1007.8 |
| 20260508184557 | 76 | 0 | 0.0 | 9.0 | 0.00 | 0.00 | 0.00 | 26 | 1008.0 |
| 20260508183057 | 75 | 201 | 2.0 | 13.0 | 0.00 | 0.00 | 0.00 | 30 | 1008.2 |
| 20260508181558 | 74 | 0 | 1.0 | 10.0 | 0.00 | 0.00 | 0.00 | 29 | 1008.5 |
| 20260508180057 | 74 | 215 | 1.0 | 5.0 | 0.00 | 0.00 | 0.00 | 30 | 1008.6 |
| 20260508174557 | 74 | 0 | 1.0 | 8.0 | 0.00 | 0.00 | 0.00 | 29 | 1008.7 |
| 20260508173056 | 74 | 184 | 1.0 | 5.0 | 0.00 | 0.00 | 0.00 | 27 | 1008.9 |
| 20260508171605 | 73 | 0 | 0.0 | 3.0 | 0.00 | 0.00 | 0.00 | 33 | 1009.0 |
| 20260508170100 | 72 | 0 | 1.0 | 3.0 | 0.00 | 0.00 | 0.00 | 34 | 1009.1 |
| 20260508164557 | 71 | 0 | 0.0 | 0.0 | 0.00 | 0.00 | 0.00 | 37 | 1009.2 |
| 20260508163059 | 71 | 358 | 0.0 | 1.0 | 0.00 | 0.00 | 0.00 | 33 | 1009.2 |
| 20260508161602 | 70 | 0 | 0.0 | 3.0 | 0.00 | 0.00 | 0.00 | 30 | 1009.2 |
| 20260508160058 | 71 | 94 | 0.0 | 2.0 | 0.00 | 0.00 | 0.00 | 37 | 1009.4 |
| 20260508154559 | 71 | 0 | 0.0 | 3.0 | 0.00 | 0.00 | 0.00 | 32 | 1009.3 |
| 20260508153058 | 70 | 151 | 0.0 | 2.0 | 0.00 | 0.00 | 0.00 | 37 | 1009.2 |
| 20260508151557 | 69 | 0 | 0.0 | 2.0 | 0.00 | 0.00 | 0.00 | 38 | 1009.5 |
| 20260508150057 | 68 | 0 | 0.0 | 0.0 | 0.00 | 0.00 | 0.00 | 42 | 1009.5 |
| 20260508144603 | 66 | 0 | 0.0 | 2.0 | 0.00 | 0.00 | 0.00 | 47 | 1009.5 |
| 20260508143105 | 64 | 0 | 0.0 | 1.0 | 0.00 | 0.00 | 0.00 | 47 | 1009.6 |
| 20260508141557 | 62 | 0 | 0.0 | 0.0 | 0.00 | 0.00 | 0.00 | 47 | 1009.8 |
| 20260508140059 | 59 | 0 | 0.0 | 0.0 | 0.00 | 0.00 | 0.00 | 50 | 1009.8 |
| 20260508134559 | 57 | 0 | 0.0 | 2.0 | 0.00 | 0.00 | 0.00 | 55 | 1009.8 |
| 20260508133100 | 57 | 0 | 0.0 | 2.0 | 0.00 | 0.00 | 0.00 | 56 | 1009.8 |
| 20260508131600 | 56 | 187 | 0.0 | 2.0 | 0.00 | 0.00 | 0.00 | 53 | 1009.8 |
| 20260508130110 | 56 | 0 | 0.0 | 1.0 | 0.00 | 0.00 | 0.00 | 54 | 1009.4 |
| 20260508124559 | 55 | 0 | 0.0 | 0.0 | 0.00 | 0.00 | 0.00 | 51 | 1009.2 |
| 20260508123109 | 54 | 0 | 1.0 | 2.0 | 0.00 | 0.00 | 0.00 | 53 | 1009.2 |
| 20260508121607 | 54 | 0 | 0.0 | 1.0 | 0.00 | 0.00 | 0.00 | 55 | 1009.2 |
| 20260508120059 | 53 | 0 | 0.0 | 0.0 | 0.00 | 0.00 | 0.00 | 52 | 1009.2 |
| 20260508114555 | 53 | 0 | 0.0 | 3.0 | 0.00 | 0.00 | 0.00 | 56 | 1009.4 |
| 20260508113109 | 52 | 0 | 1.0 | 3.0 | 0.00 | 0.00 | 0.00 | 54 | 1009.3 |
| 20260508111556 | 52 | 0 | 0.0 | 0.0 | 0.00 | 0.00 | 0.00 | 55 | 1009.5 |
| 20260508110057 | 53 | 0 | 0.0 | 0.0 | 0.00 | 0.00 | 0.00 | 50 | 1009.5 |
| 20260508104620 | 53 | 0 | 0.0 | 0.0 | 0.00 | 0.00 | 0.00 | 46 | 1009.4 |
| 20260508103054 | 53 | 0 | 0.0 | 0.0 | 0.00 | 0.00 | 0.00 | 47 | 1009.5 |
| 20260508101557 | 53 | 0 | 0.0 | 2.0 | 0.00 | 0.00 | 0.00 | 48 | 1009.6 |
| 20260508100057 | 52 | 140 | 0.0 | 5.0 | 0.00 | 0.00 | 0.00 | 49 | 1009.6 |
| 20260508094555 | 52 | 0 | 0.0 | 1.0 | 0.00 | 0.00 | 0.00 | 54 | 1010.0 |
| 20260508093055 | 53 | 0 | 0.0 | 2.0 | 0.00 | 0.00 | 0.00 | 50 | 1010.1 |
| 20260508091614 | 53 | 0 | 0.0 | 1.0 | 0.00 | 0.00 | 0.00 | 49 | 1009.7 |
| 20260508090109 | 54 | 0 | 0.0 | 2.0 | 0.00 | 0.00 | 0.00 | 50 | 1010.3 |
| 20260508084557 | 55 | 67 | 0.0 | 2.0 | 0.00 | 0.00 | 0.00 | 47 | 1010.2 |
| 20260508083111 | 55 | 0 | 0.0 | 1.0 | 0.00 | 0.00 | 0.00 | 44 | 1010.3 |
| 20260508081602 | 55 | 0 | 0.0 | 5.0 | 0.00 | 0.00 | 0.00 | 43 | 1009.8 |
| 20260508080106 | 55 | 44 | 0.0 | 0.0 | 0.00 | 0.00 | 0.00 | 44 | 1010.1 |
| 20260508074556 | 56 | 0 | 0.0 | 0.0 | 0.00 | 0.00 | 0.00 | 43 | 1010.4 |
| 20260508073100 | 56 | 0 | 0.0 | 4.0 | 0.00 | 0.00 | 0.00 | 40 | 1010.1 |
| 20260508071602 | 56 | 0 | 1.0 | 5.0 | 0.00 | 0.00 | 0.00 | 42 | 1010.0 |
| 20260508070140 | 56 | 37 | 1.0 | 3.0 | 0.00 | 0.00 | 0.00 | 40 | 1010.1 |
| 20260508064608 | 56 | 0 | 0.0 | 0.0 | 0.00 | 0.00 | 0.00 | 39 | 1010.4 |
| 20260508063053 | 56 | 0 | 0.0 | 2.0 | 0.00 | 0.00 | 0.00 | 38 | 1010.4 |
| 20260508061603 | 56 | 0 | 0.0 | 3.0 | 0.00 | 0.00 | 0.00 | 38 | 1010.4 |
| 20260508060057 | 56 | 36 | 1.0 | 4.0 | 0.00 | 0.00 | 0.00 | 39 | 1010.0 |
| 20260508054554 | 56 | 0 | 0.0 | 2.0 | 0.00 | 0.00 | 0.00 | 43 | 1010.1 |
| 20260508053104 | 57 | 0 | 0.0 | 3.0 | 0.00 | 0.00 | 0.00 | 39 | 1010.1 |
| 20260508051558 | 57 | 0 | 0.0 | 0.0 | 0.00 | 0.00 | 0.00 | 37 | 1010.1 |
| 20260508050103 | 58 | 0 | 0.0 | 0.0 | 0.00 | 0.00 | 0.00 | 36 | 1010.2 |
| 20260508044557 | 58 | 0 | 0.0 | 0.0 | 0.00 | 0.00 | 0.00 | 35 | 1010.3 |
| 20260508043104 | 58 | 0 | 0.0 | 0.0 | 0.00 | 0.00 | 0.00 | 35 | 1010.3 |
| 20260508041557 | 58 | 0 | 0.0 | 0.0 | 0.00 | 0.00 | 0.00 | 35 | 1010.3 |
| 20260508040100 | 58 | 0 | 0.0 | 0.0 | 0.00 | 0.00 | 0.00 | 35 | 1010.5 |
| 20260508034559 | 59 | 0 | 0.0 | 0.0 | 0.00 | 0.00 | 0.00 | 34 | 1010.3 |
| 20260508033057 | 59 | 0 | 0.0 | 0.0 | 0.00 | 0.00 | 0.00 | 34 | 1010.2 |
| 20260508031601 | 59 | 0 | 0.0 | 0.0 | 0.00 | 0.00 | 0.00 | 34 | 1010.3 |
| 20260508024601 | 61 | 0 | 0.0 | 0.0 | 0.00 | 0.00 | 0.00 | 31 | 1010.2 |
| 20260508023055 | 62 | 0 | 0.0 | 0.0 | 0.00 | 0.00 | 0.00 | 31 | 1010.0 |
| 20260508021554 | 62 | 0 | 0.0 | 0.0 | 0.00 | 0.00 | 0.00 | 31 | 1009.9 |
| 20260508020100 | 63 | 0 | 0.0 | 0.0 | 0.00 | 0.00 | 0.00 | 30 | 1009.7 |
| 20260508014556 | 63 | 0 | 0.0 | 0.0 | 0.00 | 0.00 | 0.00 | 30 | 1009.6 |
| 20260508013104 | 65 | 0 | 0.0 | 4.0 | 0.00 | 0.00 | 0.00 | 28 | 1009.7 |
| 20260508011554 | 66 | 348 | 0.0 | 4.0 | 0.00 | 0.00 | 0.00 | 27 | 1009.5 |
| 20260508010058 | 67 | 0 | 0.0 | 6.0 | 0.00 | 0.00 | 0.00 | 26 | 1009.4 |
| 20260508004600 | 67 | 0 | 0.0 | 7.0 | 0.00 | 0.00 | 0.00 | 27 | 1009.2 |
| 20260508003059 | 68 | 0 | 0.0 | 8.0 | 0.00 | 0.00 | 0.00 | 27 | 1009.1 |
| 20260508001559 | 68 | 0 | 1.0 | 6.0 | 0.00 | 0.00 | 0.00 | 26 | 1009.1 |
| 20260508000057 | 69 | 0 | 0.0 | 10.0 | 0.00 | 0.00 | 0.00 | 26 | 1009.0 |
| 20260507234555 | 69 | 345 | 2.0 | 11.0 | 0.00 | 0.00 | 0.00 | 26 | 1008.9 |
| 20260507233055 | 69 | 307 | 1.0 | 13.0 | 0.00 | 0.00 | 0.00 | 27 | 1009.0 |
| 20260507231555 | 70 | 350 | 1.0 | 13.0 | 0.00 | 0.00 | 0.00 | 27 | 1009.0 |
| 20260507230100 | 70 | 293 | 0.0 | 8.0 | 0.00 | 0.00 | 0.00 | 28 | 1008.8 |
| 20260507224557 | 71 | 356 | 3.0 | 12.0 | 0.00 | 0.00 | 0.00 | 26 | 1008.8 |
| 20260507223057 | 71 | 341 | 2.0 | 9.0 | 0.00 | 0.00 | 0.00 | 28 | 1008.9 |